Wetbulb
71.79 70.85 68.39 69.00 68.77 67.48 65.98 65.15 63.45 60.78 60.97 64.36 65.46 69.48 72.13 73.01 74.53 75.07 74.09 73.13 72.10 71.41 70.71 70.51 71.11 71.78 72.40 73.24 73.75 73.78 74.30 74.21 74.02 73.72 73.73 73.80 74.13 74.57
71.44 71.10 70.59 70.09 69.57 68.91 69.05 68.84 68.08 65.27 60.87 63.85 66.99 69.17 73.00 73.65 74.61 74.67 73.70 72.26 71.49 70.70 70.07 69.69 69.89 70.67 71.13 71.42 71.52 71.93 72.23 72.65 72.68 72.68 72.45 72.54 72.54 72.95
70.82 70.57 70.37 70.43 70.33 69.83 69.32 69.28 68.36 68.59 64.65 66.98 68.55 70.02 70.07 70.03 72.63 73.92 73.01 71.79 72.00 69.92 69.83 69.24 68.57 68.71 69.29 69.49 69.83 70.03 70.39 70.68 70.80 71.18 71.69 71.74 71.92 71.89
70.88 69.94 70.24 71.47 69.59 69.26 68.68 68.61 68.51 69.12 67.72 65.55 66.82 68.14 68.65 69.36 69.96 70.80 71.71 73.88 72.27 71.47 68.77 68.36 67.97 67.58 67.21 67.18 66.87 67.09 67.14 67.23 67.63 68.19 68.76 69.59 70.33 70.73
70.50 70.45 70.66 69.90 69.65 69.65 69.95 69.64 69.52 70.32 68.69 68.31 67.49 68.95 68.49 69.58 69.35 70.56 71.31 71.54 73.75 70.77 68.28 67.53 66.96 66.71 65.83 64.95 64.56 64.06 63.33 63.64 64.16 64.62 65.07 65.98 67.45 68.58
71.10 71.12 70.87 70.12 70.07 69.64 69.45 69.84 69.08 68.96 68.84 68.13 68.01 67.70 68.01 68.74 68.73 67.35 67.58 68.88 68.93 72.11 70.86 70.03 68.66 66.21 64.42 63.37 63.65 63.53 61.44 60.01 59.65 59.99 60.72 61.38 62.24 63.42
71.38 71.18 71.35 71.51 70.92 69.87 70.39 69.71 69.25 68.60 68.31 68.04 66.45 67.63 67.63 67.50 66.49 67.56 67.38 67.74 68.57 69.47 69.29 69.87 69.23 65.64 62.23 61.95 62.93 61.76 60.03 58.91 57.75 56.91 56.45 56.29 56.79 57.85
70.38 71.61 71.84 71.83 71.15 69.10 68.94 69.32 70.28 69.33 67.83 67.27 67.36 66.31 65.89 66.49 67.38 67.43 66.93 66.04 64.65 70.04 68.60 68.17 67.70 61.11 59.30 58.08 59.99 59.15 58.40 57.55 56.81 55.97 55.25 54.35 54.29 54.49
70.59 70.82 71.01 72.72 70.32 71.76 69.03 67.35 67.47 67.73 68.83 68.78 67.02 66.69 66.07 67.03 67.47 67.27 67.54 66.69 66.66 68.94 67.09 64.42 64.56 59.22 57.37 57.70 58.70 58.18 57.09 56.15 55.07 54.82 54.74 54.62 54.07 52.15
71.47 71.01 70.63 70.87 70.49 71.19 70.85 70.01 69.05 69.15 68.47 68.44 68.58 68.89 68.21 68.32 69.20 69.47 68.82 67.70 67.07 66.41 65.39 63.08 61.57 58.92 56.41 55.91 59.16 57.91 56.77 55.43 54.60 54.74 54.59 54.13 52.07 52.09
71.22 71.22 71.00 70.52 67.80 65.95 69.95 69.22 68.49 68.94 65.29 64.38 64.62 64.91 65.44 65.61 68.37 67.22 65.58 64.09 62.46 61.32 61.50 60.46 59.77 59.18 56.73 55.89 56.39 59.11 57.04 55.36 55.00 55.40 55.67 54.55 53.24 53.43
69.57 71.25 66.71 69.96 65.22 63.35 69.52 69.82 68.24 69.09 67.79 65.59 64.26 63.13 62.89 63.10 63.51 66.51 65.60 64.04 60.49 59.15 60.97 57.85 57.57 57.63 57.05 58.82 56.97 55.00 53.34 54.95 53.74 54.17 54.76 54.01 51.95 52.14
69.09 70.08 71.46 63.71 62.02 61.13 62.23 70.33 69.07 68.71 67.77 67.79 66.05 65.12 63.42 62.87 61.81 62.05 63.56 62.63 60.06 58.79 61.14 59.14 55.69 55.07 55.43 55.15 56.55 55.61 54.14 53.43 52.48 53.21 53.05 52.54 51.35 51.98
69.50 70.15 70.58 62.45 59.86 59.67 61.24 63.51 60.94 64.30 68.64 68.26 67.06 65.79 63.75 62.54 62.55 62.22 62.81 62.07 61.50 61.01 60.78 59.01 56.93 56.55 55.23 53.99 55.01 54.97 54.19 53.69 52.61 52.14 52.26 52.22 50.85 50.74
67.50 68.34 63.81 58.80 58.81 59.92 59.06 60.49 60.58 68.17 67.60 66.85 67.85 67.60 64.87 65.11 64.23 62.72 61.24 60.84 60.41 60.48 61.56 59.94 60.37 58.89 57.45 55.67 54.92 54.46 53.50 54.41 53.46 52.87 52.32 52.25 52.21 51.48
63.93 66.57 64.96 63.53 61.48 62.62 61.42 61.92 67.13 67.97 67.38 66.77 65.43 65.75 65.80 63.91 63.28 61.69 60.50 60.00 59.05 59.56 62.41 62.56 61.28 60.67 58.45 57.87 56.67 55.39 54.81 54.43 54.39 53.93 53.35 53.55 54.19 53.70
60.90 64.64 64.12 64.14 64.09 64.12 64.50 64.84 64.28 65.04 65.84 65.05 64.10 63.38 62.52 62.99 62.56 61.97 60.02 59.54 59.27 59.37 59.78 61.51 62.62 62.56 62.71 59.90 58.27 58.22 56.83 55.21 55.53 54.88 53.45 53.97 54.80 55.55
60.72 64.51 64.78 65.66 65.77 65.61 64.93 64.25 63.55 63.96 64.67 63.44 62.86 62.45 61.39 62.09 61.58 61.08 60.56 60.46 59.74 60.17 60.02 60.23 60.22 60.24 59.99 61.38 63.79 62.18 57.31 56.97 56.93 56.73 54.61 53.97 54.32 56.13
61.78 63.83 65.84 65.64 66.09 66.27 65.61 65.07 64.49 64.76 64.59 63.72 62.95 62.21 61.94 61.84 60.37 60.42 60.68 60.44 60.30 60.49 59.37 59.90 59.79 59.08 57.09 56.65 58.71 60.07 59.71 57.31 56.95 55.75 55.41 54.58 54.67 57.19
63.07 64.33 66.11 66.41 66.47 66.05 65.93 65.14 64.62 64.53 63.58 63.16 62.75 63.08 62.41 61.89 60.18 60.26 60.69 60.62 60.57 60.76 60.15 58.02 58.75 60.43 59.08 58.31 56.91 57.37 54.97 58.98 56.67 56.07 55.43 55.09 56.88 57.35
61.87 64.54 66.86 66.93 66.95 66.84 66.67 66.47 65.41 64.32 63.14 62.35 62.13 61.92 62.61 61.78 61.08 61.28 60.75 58.07 58.33 60.48 59.45 58.68 61.68 60.00 61.66 58.75 55.84 55.87 57.06 53.47 56.81 56.33 54.32 53.39 53.12 52.27
62.69 63.11 66.42 67.61 67.11 67.07 66.55 65.73 64.81 63.12 62.93 62.25 62.14 61.99 61.54 61.83 61.22 60.52 60.23 59.99 59.72 60.37 59.66 59.45 60.19 59.12 58.73 56.94 55.37 54.47 54.68 56.25 54.10 54.37 54.97 55.62 55.03 52.66
65.36 65.62 66.42 67.88 67.72 66.94 66.02 64.90 64.49 63.89 63.79 62.73 61.78 62.26 61.65 60.60 60.30 61.74 61.36 59.79 60.00 59.91 57.30 56.40 55.63 56.88 56.43 56.50 56.47 56.24 54.90 55.42 55.22 55.70 56.39 54.64 54.45 54.64
MSLP
1016.84 1017.00 1017.33 1017.38 1017.38 1017.50 1017.57 1017.69 1017.80 1018.30 1017.88 1016.93 1016.34 1015.54 1015.39 1015.65 1015.96 1016.15 1016.24 1016.44 1016.56 1016.73 1016.90 1017.04 1017.11 1017.29 1017.45 1017.58 1017.66 1017.75 1017.84 1017.92 1017.96 1017.99 1018.05 1018.13 1018.20 1018.25
1016.56 1016.64 1016.64 1016.66 1016.80 1017.08 1017.15 1017.17 1017.28 1017.62 1017.68 1017.10 1016.28 1015.76 1015.37 1015.70 1015.77 1016.30 1016.11 1016.07 1016.16 1016.26 1016.34 1016.50 1016.63 1016.71 1016.82 1016.80 1016.87 1016.93 1017.00 1017.10 1017.22 1017.33 1017.45 1017.55 1017.66 1017.74
1016.08 1016.30 1016.36 1016.36 1016.45 1016.60 1016.82 1016.88 1017.00 1017.26 1017.40 1017.09 1016.48 1016.11 1015.92 1015.72 1015.60 1015.65 1015.67 1015.81 1015.77 1015.71 1015.74 1015.77 1016.04 1016.28 1016.41 1016.47 1016.44 1016.35 1016.42 1016.51 1016.54 1016.64 1016.74 1016.83 1016.90 1016.98
1015.78 1015.99 1016.08 1016.17 1016.28 1016.16 1016.37 1016.53 1016.75 1016.85 1017.02 1016.94 1016.68 1016.44 1016.18 1015.85 1015.61 1015.72 1015.47 1015.26 1015.36 1015.18 1015.37 1015.30 1015.42 1015.48 1015.68 1015.72 1015.75 1015.93 1015.86 1015.73 1015.90 1016.10 1016.23 1016.38 1016.23 1016.15
1015.33 1015.51 1015.51 1015.62 1015.84 1015.82 1015.94 1016.15 1016.24 1016.35 1016.47 1016.48 1016.52 1016.20 1016.23 1015.88 1015.77 1015.70 1015.55 1015.36 1015.16 1015.06 1015.07 1014.91 1014.99 1015.04 1015.20 1015.30 1015.26 1015.28 1015.37 1015.44 1015.50 1015.47 1015.46 1015.53 1015.51 1015.47
1014.49 1014.72 1014.84 1014.95 1015.11 1015.25 1015.47 1015.59 1015.75 1016.01 1016.21 1016.28 1016.34 1016.17 1016.03 1015.76 1015.75 1015.76 1015.65 1015.39 1015.22 1014.66 1014.39 1014.53 1014.68 1015.00 1015.09 1015.07 1015.00 1014.94 1014.91 1015.01 1015.07 1015.14 1015.17 1015.18 1015.21 1015.16
1013.81 1013.94 1014.10 1014.15 1014.31 1014.55 1014.92 1015.03 1015.25 1015.45 1015.69 1015.98 1016.27 1015.95 1015.78 1015.86 1015.84 1015.47 1015.45 1015.20 1014.82 1014.60 1014.45 1014.51 1014.68 1015.00 1015.31 1015.37 1015.38 1015.22 1015.13 1015.16 1015.14 1015.16 1015.12 1015.02 1015.02 1015.10
1013.07 1013.24 1013.41 1013.46 1013.67 1013.87 1014.05 1014.21 1014.28 1014.61 1014.96 1015.40 1015.31 1015.43 1015.22 1015.18 1015.21 1015.20 1015.18 1015.26 1015.17 1014.40 1014.64 1014.64 1014.62 1015.37 1015.56 1015.64 1015.62 1015.66 1015.52 1015.35 1015.36 1015.42 1015.49 1015.39 1015.26 1015.10
1012.29 1012.57 1012.87 1012.87 1013.06 1013.27 1013.36 1013.53 1013.71 1013.79 1013.80 1014.17 1014.55 1014.45 1014.46 1014.49 1014.70 1014.77 1014.79 1014.86 1014.81 1014.46 1014.54 1014.80 1015.03 1015.58 1015.76 1015.84 1015.84 1015.73 1015.76 1015.74 1015.68 1015.70 1015.65 1015.53 1015.31 1014.99
1011.57 1011.84 1012.11 1012.18 1012.26 1012.59 1012.95 1013.10 1013.10 1013.13 1013.19 1013.45 1013.57 1013.49 1013.52 1013.76 1013.97 1014.01 1014.15 1014.40 1014.54 1014.62 1014.58 1014.98 1015.13 1015.56 1015.85 1015.80 1015.70 1015.81 1015.95 1016.03 1015.86 1015.76 1015.63 1015.48 1015.20 1014.97
1010.83 1011.09 1011.33 1011.60 1011.65 1011.82 1012.35 1012.56 1012.63 1012.54 1012.60 1012.78 1013.02 1013.04 1013.08 1013.16 1013.27 1013.78 1014.04 1014.48 1014.64 1014.84 1014.71 1014.82 1015.22 1015.55 1015.77 1015.67 1015.56 1015.60 1015.78 1015.98 1015.85 1015.57 1015.39 1015.08 1014.85 1014.62
1009.94 1010.14 1010.38 1010.67 1010.94 1011.26 1011.61 1011.95 1012.20 1012.13 1012.42 1012.74 1012.90 1012.96 1012.89 1013.01 1013.13 1013.27 1013.64 1014.15 1014.59 1014.82 1014.58 1014.90 1015.21 1015.54 1015.74 1015.38 1015.31 1015.40 1015.61 1015.73 1015.64 1015.32 1015.07 1014.91 1014.68 1014.56
1009.33 1009.31 1009.26 1009.53 1010.05 1010.41 1010.83 1011.04 1011.10 1011.24 1011.66 1012.02 1012.29 1012.59 1012.81 1012.94 1013.02 1013.14 1013.30 1013.60 1014.06 1014.25 1014.14 1014.46 1015.03 1015.43 1015.60 1015.65 1015.35 1015.19 1015.34 1015.26 1015.30 1014.98 1014.70 1014.57 1014.50 1014.53
1008.81 1008.33 1008.43 1008.57 1009.00 1009.46 1009.95 1010.01 1010.18 1010.54 1011.10 1011.56 1011.98 1012.25 1012.50 1012.69 1012.65 1012.94 1013.00 1013.23 1013.30 1013.46 1013.51 1014.04 1014.68 1015.00 1015.36 1015.65 1015.47 1015.12 1014.97 1014.74 1014.88 1014.81 1014.53 1014.37 1014.42 1014.38
1008.74 1008.08 1008.03 1008.09 1008.01 1008.46 1008.85 1009.09 1009.64 1010.13 1010.43 1010.97 1011.23 1011.45 1011.50 1011.67 1012.09 1012.70 1012.87 1013.01 1013.09 1013.12 1013.37 1013.64 1014.05 1014.44 1014.78 1015.05 1015.22 1014.96 1014.92 1014.54 1014.49 1014.56 1014.40 1014.33 1014.10 1013.88
1007.67 1008.03 1007.61 1007.39 1007.82 1007.96 1008.63 1008.98 1009.15 1009.25 1009.60 1009.98 1010.32 1010.63 1011.03 1011.57 1011.95 1012.23 1012.85 1013.15 1013.30 1013.17 1013.02 1013.24 1013.57 1013.96 1014.30 1014.50 1014.64 1014.56 1014.52 1014.62 1014.05 1014.07 1014.04 1013.86 1013.50 1013.36
1007.53 1007.09 1007.41 1007.41 1007.67 1008.29 1008.37 1008.12 1008.37 1008.74 1009.08 1009.35 1009.74 1010.19 1010.77 1011.07 1011.39 1011.75 1012.30 1012.94 1013.11 1012.97 1012.89 1012.87 1012.89 1013.14 1013.45 1013.79 1014.10 1013.82 1013.88 1013.93 1013.45 1013.63 1013.88 1013.58 1012.77 1012.45
1006.93 1006.96 1006.07 1006.33 1006.66 1007.33 1007.70 1007.88 1007.91 1008.11 1008.27 1008.79 1009.29 1009.67 1010.23 1010.74 1011.15 1011.62 1011.80 1012.23 1012.66 1012.53 1012.60 1012.61 1012.88 1013.17 1013.31 1012.89 1012.61 1012.78 1013.15 1013.21 1012.76 1012.75 1013.02 1013.34 1012.56 1011.52
1005.42 1005.52 1003.41 1004.38 1005.79 1006.28 1006.63 1007.01 1007.03 1007.17 1007.57 1008.21 1008.85 1009.35 1009.88 1010.31 1010.82 1011.24 1011.51 1011.85 1012.12 1012.04 1012.02 1012.15 1012.55 1012.77 1012.96 1012.67 1011.68 1011.71 1012.19 1012.28 1012.22 1012.23 1012.18 1012.54 1012.07 1011.05
1005.50 1004.39 1004.19 1004.60 1004.76 1005.24 1005.56 1005.96 1006.26 1006.65 1007.13 1007.67 1008.23 1008.71 1009.33 1009.73 1010.38 1010.84 1011.14 1011.26 1011.40 1011.46 1011.58 1011.66 1011.72 1011.71 1011.99 1011.68 1011.59 1011.16 1010.99 1011.38 1011.64 1011.51 1011.63 1011.50 1011.10 1010.58
1004.21 1003.99 1003.41 1003.64 1003.51 1003.97 1004.57 1004.70 1005.04 1005.90 1006.40 1006.91 1007.66 1008.07 1008.59 1009.04 1009.52 1009.94 1010.10 1010.35 1010.60 1010.94 1011.08 1011.07 1010.50 1010.61 1010.83 1011.11 1011.43 1011.17 1010.46 1010.27 1010.26 1010.59 1010.71 1011.03 1010.92 1010.61
1003.00 1002.64 1002.78 1002.79 1002.96 1002.94 1003.26 1003.74 1004.20 1005.09 1005.66 1006.25 1006.90 1007.39 1007.89 1008.26 1008.73 1009.25 1009.64 1009.79 1010.05 1010.30 1010.35 1010.25 1010.20 1010.38 1010.61 1010.99 1010.95 1010.88 1010.41 1009.78 1009.53 1009.65 1009.88 1009.99 1010.24 1010.19
1002.17 1002.23 1001.52 1001.70 1001.98 1002.25 1002.32 1002.85 1003.54 1004.26 1005.02 1005.63 1006.21 1006.68 1006.95 1007.67 1008.03 1008.55 1008.84 1009.13 1009.45 1009.83 1009.96 1009.96 1009.86 1010.14 1010.13 1010.23 1010.22 1010.14 1009.96 1009.62 1009.77 1009.64 1009.17 1009.01 1008.95 1008.94
Wind_Speed
5 5 4 4 3 3 3 3 4 2 3 3 2 2 4 4 4 5 7 11 16 15 16 17 17 17 17 16 16 16 16 16 16 16 16 17 18 19
4 5 4 3 4 2 3 2 2 2 3 4 2 1 3 4 7 5 7 8 13 14 15 16 16 17 17 18 18 18 18 18 18 17 17 17 17 18
5 5 6 5 4 3 2 1 1 2 2 3 2 1 2 2 3 6 5 5 5 15 16 16 14 13 15 16 16 17 16 16 17 17 18 17 18 18
10 6 7 5 6 5 3 4 3 3 4 4 3 2 4 2 4 4 5 6 5 7 13 13 14 15 14 14 14 13 15 14 12 12 11 14 16 18
8 7 8 7 6 4 4 4 3 3 3 3 3 2 4 3 2 2 2 2 1 4 10 8 8 8 6 9 10 11 12 10 12 13 13 14 15 16
10 9 9 8 8 7 6 6 5 4 3 3 3 3 4 3 1 3 3 2 3 4 2 3 2 11 10 9 7 5 8 8 7 8 10 10 11 10
9 10 9 9 10 9 5 6 6 4 4 4 3 3 3 2 3 3 3 2 3 3 1 0 2 2 4 6 5 8 8 8 6 5 4 2 3 6
11 9 8 11 12 14 15 11 9 7 6 4 4 4 5 4 3 4 3 1 3 1 2 2 3 1 2 2 4 4 6 7 8 8 8 9 9 8
12 10 9 9 10 9 12 13 12 13 12 7 6 7 4 6 4 3 4 3 4 2 1 2 2 2 1 2 3 5 6 7 8 8 8 9 9 8
12 11 11 12 9 10 9 8 9 9 9 7 7 7 6 4 6 5 4 3 0 0 1 2 0 1 2 1 1 3 3 5 5 5 8 11 10 7
11 12 12 12 13 14 8 9 8 6 3 5 7 8 8 9 6 4 3 3 2 2 1 2 0 2 2 2 4 7 5 4 4 1 3 6 7 7
11 13 16 16 14 16 12 9 8 7 6 3 3 1 3 2 4 4 3 3 3 1 3 3 2 2 2 2 2 3 2 8 8 5 4 3 5 3
11 10 11 19 17 17 16 10 11 7 8 7 5 4 3 4 3 3 4 4 3 3 4 4 3 1 1 2 2 3 4 3 3 4 6 6 5 2
14 11 11 17 19 18 14 16 12 9 4 5 4 4 4 4 4 4 4 4 3 3 5 4 3 4 3 1 3 1 3 3 3 3 2 3 5 7
14 15 12 15 18 16 16 14 12 7 6 4 7 6 4 5 5 4 2 2 2 2 4 4 3 4 3 3 2 3 1 3 4 3 2 4 4 4
17 14 11 11 10 6 5 7 8 7 7 6 4 3 3 4 5 4 4 3 2 2 5 6 6 5 2 4 3 3 4 3 2 4 3 3 4 5
8 4 5 5 6 5 5 6 6 5 6 5 4 5 4 4 5 4 4 3 4 4 2 2 5 6 5 4 3 5 4 4 4 3 3 4 5 5
2 9 8 8 8 8 8 7 6 8 6 5 4 4 4 5 6 4 3 4 4 3 3 2 3 2 0 5 14 8 3 4 3 5 4 3 5 5
6 8 7 6 8 9 8 8 8 8 6 6 5 5 5 5 6 4 4 4 4 4 5 4 3 3 4 5 4 11 5 4 3 2 5 6 5 9
11 7 10 10 10 10 9 9 6 6 6 6 6 6 6 7 5 4 5 5 5 4 4 3 4 5 6 6 3 4 15 5 5 4 3 2 6 9
9 10 8 9 9 9 11 9 9 8 7 6 6 5 7 8 5 5 5 7 6 3 3 4 6 6 3 4 0 3 4 15 7 6 3 2 3 3
10 10 9 7 9 10 8 7 7 7 6 6 6 6 6 6 5 5 5 5 4 4 4 4 2 2 3 5 5 4 3 5 8 14 9 7 4 4
7 10 9 9 9 8 7 7 7 7 7 7 7 7 6 5 5 6 5 4 4 4 4 3 1 2 4 5 6 5 6 5 3 5 4 6 15 17
Wind_Direction
239 232 214 213 202 170 168 188 163 238 273 280 265 287 179 199 227 201 200 214 219 217 219 223 225 228 229 229 229 232 235 238 239 239 238 238 241 243
226 245 252 256 259 200 178 178 135 205 244 228 267 298 131 167 153 261 239 224 220 221 223 229 232 233 233 232 231 231 233 235 239 241 242 242 243 244
229 219 242 246 251 232 201 200 178 154 220 306 281 322 244 221 244 217 219 235 236 229 228 230 234 238 241 245 242 239 240 241 241 242 242 242 242 245
232 222 227 219 237 243 204 207 199 182 182 231 238 265 244 259 249 247 240 237 222 231 236 234 235 238 245 243 244 247 244 247 250 248 256 257 250 248
210 217 223 209 228 221 225 216 212 182 212 173 239 218 232 227 225 240 255 283 314 242 236 245 250 244 260 261 250 248 255 251 247 243 249 252 255 258
220 219 223 214 216 214 218 221 221 224 205 211 235 242 236 247 214 212 274 233 240 247 244 232 359 92 64 60 36 338 265 252 258 265 262 266 269 270
222 231 230 225 214 210 199 221 210 217 213 217 233 229 215 229 214 224 226 252 283 240 294 264 101 57 39 46 65 67 73 73 74 73 80 57 343 304
222 229 229 220 227 225 222 219 202 206 217 198 222 215 222 208 200 215 214 205 281 232 173 248 128 87 50 56 77 76 78 72 53 35 13 1 346 327
223 219 227 233 225 231 233 228 236 230 221 210 217 218 216 207 197 225 217 213 220 234 113 272 97 116 106 123 128 76 62 58 46 33 20 356 328 328
221 218 222 231 220 214 226 232 233 223 221 220 221 234 218 201 201 198 211 211 340 290 128 218 129 120 171 234 192 160 132 122 93 47 23 8 357 340
223 222 223 228 223 207 207 218 229 231 133 225 245 247 230 222 195 146 191 150 292 272 331 141 134 126 203 231 213 212 205 207 166 127 41 13 4 342
229 227 220 225 213 211 212 220 227 227 194 193 207 199 182 195 202 202 160 179 166 265 228 147 154 145 292 250 196 198 208 243 239 251 253 314 354 1
235 228 226 212 213 213 211 208 219 192 200 203 206 198 198 210 210 215 195 156 164 213 208 131 159 150 132 280 266 203 197 220 237 265 267 261 286 323
255 238 228 203 206 213 209 219 206 181 182 177 178 203 197 198 197 193 196 199 190 183 169 156 169 159 167 238 264 301 241 233 221 256 257 271 262 271
256 256 227 205 206 215 211 205 187 189 181 180 207 211 189 188 146 156 176 174 165 170 164 181 165 166 163 192 246 245 235 251 217 233 259 236 231 219
245 252 225 206 214 197 146 182 197 187 185 193 183 190 152 154 172 157 163 172 161 261 227 206 201 173 194 228 202 262 215 247 214 229 239 266 257 234
287 205 206 193 175 190 213 196 184 175 188 186 167 171 183 170 177 158 138 160 193 186 232 243 216 203 202 181 255 230 240 243 227 222 188 265 261 242
276 243 198 202 197 199 206 201 196 196 197 174 177 169 172 182 176 165 141 169 192 213 232 226 164 134 308 260 205 253 223 232 229 215 199 223 277 263
216 235 210 197 212 206 194 191 199 200 179 181 182 178 174 177 160 170 181 169 213 218 225 189 187 167 191 235 282 216 206 221 212 225 200 199 226 264
219 204 205 199 204 203 191 195 189 175 189 186 192 183 178 179 163 181 191 188 204 214 224 172 199 197 197 229 225 256 200 213 197 242 263 240 247 291
211 213 203 200 200 193 201 188 175 183 185 170 185 171 182 179 180 201 189 189 172 188 222 243 244 217 207 100 352 273 265 219 199 193 213 205 257 280
219 210 206 200 211 196 181 173 164 173 176 174 181 174 173 170 170 175 184 182 185 198 213 240 227 158 146 198 225 232 279 289 221 240 252 225 183 259
216 219 199 204 202 194 176 168 164 173 184 181 180 184 163 167 175 186 187 196 200 201 214 259 255 163 218 198 212 224 232 254 357 333 311 249 244 258